Farrell Flat Airport

Jump to: basic info | weather | frequencies | runways | comments

Related pages: nearby airports | nearby navaids | notams | map

Basic information (top)

Codes: YFFT
Location: lon -33.833302, lat 138.766998
Status: small_airport

Weather (top)

Current conditions for Adelaide International Airport 68nm (125km) S (rec'd 2014/12/19 13:00Z):

YPAD 191300Z 15008KT CAVOK 16/09 Q1020 NOSIG

Airport forecast for Adelaide International Airport 68nm (125km) S (rec'd 2014/12/19 06:33Z):

TAF YPAD 190508Z 1906/2012 22014KT CAVOK 
     FM190900 15010KT CAVOK 
     FM191800 VRB05KT CAVOK 
     FM200000 24010KT CAVOK 
     FM200900 14008KT CAVOK

Frequencies (top)

Verify before use: may be inaccurate or out of date.

CTAF: 122.4 MHz (CTAF)
MISC: 114.2 MHz (MISC)
MISC: 119.8 MHz (MISC)
MISC: 121.3 MHz (MISC)

Runways (top)

03/21: 1,443 ft (440 m) — grass — not lighted

14/32: 2,486 ft (758 m) — grass — not lighted

Latest comments (top)

No comments yet for Farrell Flat Airport

More... (top)

See also NOTAMs and nearby airports and navaids, or visit the Farrell Flat Airport page at the main OurAirports website..